Flag for Canada Weather past 2 weeks in St. John's, Newfoundland and Labrador, Canada

Now
52 °F

Partly sunny.


Feels Like: 48 °F
Forecast: N/A
Wind: 12 mph from Northwest

Location: St. John's

Current Time: Sep 19, 2014 at 7:29:54 PM

Latest Report: Sep 19, 2014 at 6:30 PM


Visibility: 15 mi

Pressure: 29.88 "Hg

Humidity: 62%

Dew point: 39 °F

Location of St. John'sLocation

Historic Weather in St. John's — Graph

°F

St. John's temperature yesterday

Maximum temperature yesterday: 63 °F (at 2:30 PM)
Minimum temperature yesterday: 54 °F (at 4:30 AM)
Average temperature yesterday: 57 °F

Past Weeks' High & Low Weather Summary

 TemperatureHumidityPressure
High77 °F (Sep 6, 1:30 PM)100% (Sep 6, 5:30 AM)30.49 "Hg (Sep 6, 5:30 AM)
Low39 °F (Sep 14, 3:30 AM)42% (Sep 8, 1:30 PM)29.69 "Hg (Sep 12, 4:30 PM)
Average57 °F84%30.04 "Hg
* Reported Sep 4 5:30 PM — Sep 19 5:30 PM, St. John's, Weather by CustomWeather, © 2014

Note: Actual official high and low records may vary slightly from our data, if they occured in-between our weather recording intervals... More about our weather records

Advertising

St. John's weather history for previous 24 hours

 ConditionsComfort  
Time TempWeatherWind HumidityBarometerVisibility
5:30 PM
Sep 19
52 °FPartly sunny.12 mph72%29.85 "Hg15 mi
4:30 PM52 °FPartly sunny.13 mph82%29.84 "Hg15 mi
3:30 PM52 °FPartly sunny.16 mph82%29.84 "Hg15 mi
2:30 PM52 °FLow clouds.16 mph94%29.82 "Hg15 mi
2:25 PM52 °FLow clouds.18 mph94%29.82 "Hg15 mi
1:30 PM63 °FPartly sunny.14 mph64%29.79 "Hg15 mi
12:30 PM64 °FBroken clouds.10 mph68%29.79 "Hg15 mi
11:30 AM59 °FPartly sunny.9 mph88%29.80 "Hg15 mi
10:30 AM59 °FCloudy.9 mph82%29.81 "Hg15 mi
9:30 AM57 °FOvercast.7 mph82%29.81 "Hg15 mi
8:30 AM55 °FOvercast.5 mph94%29.82 "Hg15 mi
7:30 AM54 °FPartly sunny.5 mph100%29.82 "Hg15 mi
6:30 AM54 °FPassing clouds.5 mph94%29.83 "Hg15 mi
5:30 AM54 °FOvercast.5 mph94%29.83 "Hg15 mi
4:30 AM52 °FPassing clouds.5 mph94%29.84 "Hg15 mi
3:30 AM54 °FPassing clouds.2 mph94%29.85 "Hg15 mi
2:30 AM54 °FOvercast.7 mph94%29.87 "Hg15 mi
1:30 AM54 °FOvercast.5 mph94%29.90 "Hg15 mi
12:30 AM55 °FOvercast.6 mph82%29.92 "Hg15 mi
11:30 PM
Sep 18
54 °FPassing clouds.5 mph88%29.92 "Hg15 mi
10:30 PM55 °FOvercast.6 mph82%29.94 "Hg15 mi
9:30 PM55 °FPassing clouds.8 mph82%29.95 "Hg15 mi
8:30 PM57 °FPassing clouds.7 mph77%29.96 "Hg15 mi
7:30 PM57 °FOvercast.8 mph77%29.96 "Hg15 mi
Weather by CustomWeather, © 2014

See weather overviewHow to use our weather pages